#timestamp,LO_Frequency,Hit,StdDev 
1683327615.3,286046999.4,N
1683327635.1,286046999.0,P
1683327636.0,286046999.0,Y
1683327655.8,286046999.3,P
1683327675.7,286046997.1,P
1683327695.5,286046999.5,N
1683327715.3,286046996.9,Y
1683327735.2,286046998.5,P
1683327755.0,286046996.9,P
1683327755.9,286046996.9,P
1683327775.8,286046996.5,Y
1683327795.6,286046998.1,P
1683327815.4,286047001.2,P
1683327835.3,286047000.7,N
1683327855.1,286047000.7,N
1683327875.9,286047000.7,N
1683327895.7,286047000.4,N
1683327915.5,286046999.8,N
1683327935.4,286047000.3,N
1683327955.2,286047000.9,N
1683327975.0,286047001.1,N
1683327975.9,286047001.1,N
1683327995.8,286046998.8,N
1683328015.6,286046999.3,N
1683328035.5,286046998.4,N
1683328055.3,286046996.9,N
1683328075.1,286046999.1,N
1683328095.9,286046996.5,N
1683328115.7,286046996.8,N
1683328135.5,286046995.3,Y
1683328155.4,286046994.9,P
1683328175.2,286046996.8,N
1683328195.1,286046997.5,N
1683328196.0,286046997.5,N
1683328215.8,286046996.9,N
1683328235.6,286046997.3,N
1683328255.5,286046997.4,N
1683328275.3,286046997.4,N
1683328295.1,286046997.2,N
1683328315.9,286046997.7,N
1683328335.7,286046997.2,N
1683328355.6,286046996.7,Y
1683328375.4,286046998.3,P
1683328395.2,286046998.3,P
1683328415.1,286046998.6,N
1683328416.0,286046998.6,N
1683328435.8,286046998.4,Y
1683328455.7,286047002.8,P
1683328475.5,286047002.8,N
1683328495.3,286047000.0,N
1683328515.2,286047000.2,N
1683328535.9,286047000.6,N
1683328555.7,286046998.9,N
1683328575.6,286046998.7,N
1683328595.4,286046999.7,N
1683328615.2,286047000.1,N
1683328635.1,286047002.6,N
1683328636.0,286047002.6,N
1683328655.8,286047000.1,N
1683328675.7,286046999.8,N
1683328695.5,286046999.8,N
1683328715.3,286047000.6,N
1683328735.2,286046999.7,N
1683328755.0,286047000.1,N
1683328755.9,286047000.1,N
1683328775.8,286047001.8,N
1683328795.6,286047001.9,N
1683328815.4,286047002.6,N
1683328835.3,286047002.4,N
1683328855.1,286046999.8,N
1683328856.0,286046999.8,N
1683328875.8,286046999.9,N
1683328895.7,286047000.2,N
1683328915.5,286046999.9,N
1683328935.3,286047002.7,N
1683328955.2,286047000.8,N
1683328975.0,286046999.8,N
1683328975.9,286046999.8,N
1683328995.8,286047000.4,N
1683329015.6,286047000.8,N
1683329035.4,286046998.1,N
1683329055.3,286046998.4,N
1683329075.1,286047001.2,N
1683329095.8,286047000.4,N
1683329115.7,286046998.3,N
1683329135.5,286046999.3,N
1683329155.4,286046998.7,N
1683329175.2,286046999.3,N
1683329195.0,286046999.6,N
1683329195.9,286046999.6,N
1683329215.8,286046999.2,N
1683329235.6,286046998.6,N
1683329255.4,286047000.7,N
1683329275.3,286047000.5,N
1683329295.1,286046999.7,N
1683329315.9,286047000.6,N
1683329335.7,286047000.5,N
1683329355.5,286047000.6,N
1683329375.4,286047000.7,N
1683329395.2,286047000.8,N
1683329415.0,286046998.7,N
1683329416.0,286046998.7,N
1683329435.8,286047000.8,N
1683329455.6,286047001.1,N
1683329475.5,286046998.9,N
1683329495.3,286046998.7,N
1683329515.1,286047000.9,N
1683329535.9,286046998.5,N
1683329555.7,286047000.8,N
1683329575.6,286047000.5,N
1683329595.4,286047001.2,N
1683329615.2,286047000.2,N
1683329635.1,286046998.1,N
1683329636.0,286046998.1,N
1683329655.8,286046998.2,N
1683329675.6,286046998.4,N
1683329695.5,286046998.7,N
1683329715.3,286046998.4,N
1683329735.2,286046998.3,N
1683329755.9,286046998.9,N
1683329775.7,286047000.8,N
1683329795.6,286046998.5,N
1683329815.4,286046999.0,N
1683329835.2,286046998.4,N
1683329855.1,286046998.3,N
1683329856.0,286046998.3,N
1683329875.8,286046999.3,N
1683329895.7,286046999.4,N
1683329915.5,286046998.7,N
1683329935.3,286046999.5,N
1683329955.2,286046996.9,Y
1683329975.0,286047000.6,P
1683329975.9,286047000.6,N
1683329995.7,286046998.6,N
1683330015.6,286046999.3,N
1683330035.4,286046998.4,N
1683330055.3,286046997.7,N
1683330075.1,286046997.9,N
1683330076.0,286046997.9,N
1683330095.8,286046997.6,N
1683330115.7,286046999.6,N
1683330135.5,286046996.6,Y
1683330155.3,286046998.3,P
1683330175.2,286046998.7,P
1683330195.0,286047001.2,P
1683330195.9,286047001.2,N
1683330215.8,286047000.7,N
1683330235.6,286047000.4,N
1683330255.5,286047000.2,N
1683330275.3,286046999.7,N
1683330295.1,286047001.9,N
1683330315.9,286047001.3,N
1683330335.7,286047003.1,N
1683330355.5,286047004.3,Y
1683330375.4,286047003.9,P
1683330395.2,286047001.3,N
1683330415.1,286047001.5,N
1683330416.0,286047001.5,N
1683330435.8,286047003.9,Y
1683330455.7,286047002.4,P
1683330475.5,286047002.7,P
1683330495.3,286047000.1,N
1683330515.2,286047000.2,N
1683330535.0,286046998.2,N
1683330535.9,286046998.2,N
1683330555.7,286046998.2,N
1683330575.6,286046998.1,N
1683330595.4,286047001.2,N
1683330615.3,286047002.7,N
1683330635.1,286047002.4,N
1683330636.0,286047002.4,N
1683330655.8,286047001.5,N
1683330675.7,286047001.5,N
1683330695.5,286047005.6,Y
1683330715.3,286047003.5,P
1683330735.2,286047001.3,N
1683330755.0,286047001.4,N
1683330755.9,286047001.4,N
1683330775.8,286047002.6,N
1683330795.6,286047002.8,N
1683330815.4,286047001.6,N
1683330835.3,286047001.6,N
1683330855.1,286047002.6,Y
1683330875.9,286047000.4,P
1683330895.7,286047002.7,P
1683330915.5,286047011.9,P
1683330935.4,286047002.2,N
1683330955.2,286047002.6,N
1683330975.1,286047001.9,N
1683330976.0,286047001.9,N
1683330995.8,286047002.6,N
1683331015.7,286046999.7,N
1683331035.5,286047000.2,N
1683331055.3,286047002.1,N
1683331075.2,286047002.5,N
1683331095.0,286047002.4,N
1683331095.9,286047002.4,N
1683331115.8,286047002.1,N
1683331135.6,286047002.4,N
1683331155.5,286047002.7,N
1683331175.3,286047002.4,N
1683331195.1,286047002.1,N
